This demonstration page uses our WeatherBlox Daily Observations layout. Learn more.

Left ArrowRight Arrow

53.62937, 11.41316

Hourly Observations for May 13, 2016

Temp ( °F °C ) Dew Point ( °F °C ) Humidity (%) Winds ( mph kmh ) Pressure ( in mb ) Visibility ( mi km ) Precip ( " mm )
6:20 am 06:20 Mostly Sunny 46 8 43 6 87 87 VRB 2 4 29.62 1003 7 11 N/A
6:50 am 06:50 Mostly Sunny 48 9 43 6 82 82 NNE 3 6 29.62 1003 7 11 N/A
7:20 am 07:20 Mostly Sunny 50 10 43 6 76 76 NNE 5 7 29.62 1003 7 11 N/A
7:50 am 07:50 Mostly Sunny 52 11 43 6 72 72 NE 9 15 29.62 1003 7 11 N/A
8:20 am 08:20 Mostly Sunny 54 12 43 6 67 67 NE 10 17 29.62 1003 7 11 N/A
8:50 am 08:50 Mostly Sunny 57 14 41 5 55 55 NNE 8 13 29.62 1003 7 11 N/A
9:20 am 09:20 Mostly Sunny 59 15 39 4 48 48 NE 12 19 29.62 1003 7 11 N/A
9:50 am 09:50 Mostly Sunny 61 16 39 4 45 45 NNE 10 17 29.62 1003 7 11 N/A
10:20 am 10:20 Mostly Sunny 61 16 37 3 42 42 N 8 13 29.62 1003 7 11 N/A
10:50 am 10:50 Mostly Sunny 63 17 37 3 39 39 NNE 10 17 29.62 1003 7 11 N/A
11:20 am 11:20 Mostly Sunny 64 18 39 4 40 40 NNE 13 20 29.62 1003 7 11 N/A
11:50 am 11:50 Mostly Sunny 64 18 39 4 40 40 NE 16 26 29.62 1003 7 11 N/A
12:20 pm 12:20 Mostly Sunny 66 19 36 2 32 32 NNE 13 20 29.62 1003 7 11 N/A
12:50 pm 12:50 Mostly Sunny 66 19 39 4 37 37 N 12 19 29.62 1003 7 11 N/A
1:20 pm 13:20 Mostly Sunny 66 19 39 4 37 37 N 9 15 29.62 1003 7 11 N/A
1:50 pm 13:50 Mostly Sunny 68 20 43 6 40 40 N 12 19 29.62 1003 7 11 N/A
2:20 pm 14:20 Mostly Sunny 70 21 39 4 33 33 N 13 20 29.59 1002 7 11 N/A
2:50 pm 14:50 Mostly Sunny 68 20 36 2 30 30 N 13 20 29.59 1002 7 11 N/A
3:20 pm 15:20 Mostly Sunny 70 21 37 3 31 31 N 13 20 29.59 1002 7 11 N/A
3:50 pm 15:50 Mostly Sunny 70 21 34 1 27 27 N 12 19 29.59 1002 7 11 N/A
4:20 pm 16:20 Mostly Sunny 68 20 36 2 30 30 NNW 12 19 29.59 1002 7 11 N/A
4:50 pm 16:50 Mostly Sunny 68 20 36 2 30 30 N 13 20 29.59 1002 7 11 N/A
5:20 pm 17:20 Mostly Sunny 68 20 36 2 30 30 VRB 10 17 29.59 1002 7 11 N/A
5:50 pm 17:50 Mostly Sunny 68 20 39 4 35 35 N 12 19 29.59 1002 7 11 N/A
6:20 pm 18:20 Mostly Sunny 68 20 39 4 35 35 NNW 10 17 29.59 1002 7 11 N/A
6:50 pm 18:50 Mostly Sunny 66 19 37 3 35 35 NNW 8 13 29.59 1002 7 11 N/A

Powered by AerisWeather